Grub im Wienerwald
Wetterdaten: aktuell Freitag, 05.06.2020 21:06
Datum Zeit Temp. A. Feuchte A. Luftdruck Regen Wind Richtung Richtung Sonnenschein UV Solar Taupunkt Windchill Windben
05.06.2020 21:06 13,4 C 87 % 1001,6 hPa 0,0 l/m 0,0 km/h NW 307 0 min 0,0 UV-I 0 W/m 11,3 C 13,4 C 0,0 km/h
05.06.2020 21:03 13,6 C 87 % 1001,5 hPa 0,0 l/m 0,0 km/h NW 307 0 min 0,0 UV-I 0 W/m 11,5 C 13,6 C 0,0 km/h
05.06.2020 21:00 13,7 C 87 % 1001,5 hPa 0,0 l/m 0,0 km/h NW 307 0 min 0,0 UV-I 5 W/m 11,6 C 13,7 C 0,0 km/h
05.06.2020 20:57 13,8 C 87 % 1001,5 hPa 0,0 l/m 0,0 km/h NW 307 0 min 0,0 UV-I 5 W/m 11,7 C 13,8 C 0,0 km/h
05.06.2020 20:54 13,9 C 88 % 1001,3 hPa 0,0 l/m 0,0 km/h NW 307 0 min 0,0 UV-I 5 W/m 11,9 C 13,9 C 0,0 km/h
05.06.2020 20:51 14,0 C 87 % 1001,3 hPa 0,0 l/m 0,0 km/h NW 307 0 min 0,0 UV-I 7 W/m 11,9 C 14,0 C 0,0 km/h
05.06.2020 20:48 14,2 C 87 % 1001,2 hPa 0,0 l/m 0,0 km/h NW 307 0 min 0,0 UV-I 7 W/m 12,1 C 14,2 C 0,0 km/h
05.06.2020 20:45 14,2 C 87 % 1001,1 hPa 0,0 l/m 0,0 km/h NW 307 0 min 0,0 UV-I 9 W/m 12,1 C 14,2 C 0,0 km/h
05.06.2020 20:42 14,3 C 87 % 1001,1 hPa 0,0 l/m 0,2 km/h NW 307 0 min 0,0 UV-I 9 W/m 12,2 C 14,3 C 1,6 km/h
05.06.2020 20:39 14,4 C 87 % 1001,0 hPa 0,0 l/m 0,0 km/h NW 307 0 min 0,0 UV-I 11 W/m 12,3 C 14,4 C 0,0 km/h
05.06.2020 20:36 14,5 C 87 % 1000,8 hPa 0,0 l/m 0,0 km/h NW 307 0 min 0,0 UV-I 11 W/m 12,4 C 14,5 C 0,0 km/h
05.06.2020 20:33 14,6 C 87 % 1000,8 hPa 0,0 l/m 0,0 km/h NW 307 0 min 0,0 UV-I 12 W/m 12,5 C 14,6 C 0,0 km/h
05.06.2020 20:30 14,7 C 87 % 1000,8 hPa 0,0 l/m 0,0 km/h NW 307 0 min 0,0 UV-I 14 W/m 12,6 C 14,7 C 0,0 km/h
05.06.2020 20:27 14,8 C 87 % 1000,7 hPa 0,0 l/m 0,0 km/h NW 307 0 min 0,0 UV-I 14 W/m 12,7 C 14,8 C 0,0 km/h
05.06.2020 20:24 14,9 C 87 % 1000,7 hPa 0,0 l/m 0,0 km/h NW 307 0 min 0,0 UV-I 16 W/m 12,8 C 14,9 C 0,0 km/h
05.06.2020 20:21 15,0 C 87 % 1000,8 hPa 0,0 l/m 0,0 km/h NW 307 0 min 0,0 UV-I 16 W/m 12,9 C 15,0 C 0,0 km/h
05.06.2020 20:18 15,1 C 87 % 1000,6 hPa 0,0 l/m 0,1 km/h NW 307 0 min 0,0 UV-I 16 W/m 13,0 C 15,1 C 1,6 km/h
05.06.2020 20:15 15,2 C 87 % 1000,7 hPa 0,0 l/m 0,0 km/h NW 307 0 min 0,0 UV-I 18 W/m 13,0 C 15,2 C 0,0 km/h
05.06.2020 20:12 15,3 C 87 % 1000,6 hPa 0,0 l/m 2,0 km/h NW 307 0 min 0,0 UV-I 19 W/m 13,1 C 15,3 C 3,2 km/h
05.06.2020 20:09 15,5 C 87 % 1000,6 hPa 0,0 l/m 0,6 km/h NW 307 0 min 0,0 UV-I 23 W/m 13,3 C 15,5 C 4,8 km/h
05.06.2020 20:06 15,6 C 87 % 1000,5 hPa 0,0 l/m 0,8 km/h NW 307 0 min 0,0 UV-I 40 W/m 13,4 C 15,6 C 3,2 km/h
05.06.2020 20:03 15,7 C 87 % 1000,5 hPa 0,0 l/m 1,2 km/h NW 307 0 min 0,0 UV-I 51 W/m 13,5 C 15,7 C 3,2 km/h
05.06.2020 20:00 15,7 C 87 % 1000,5 hPa 0,0 l/m 0,0 km/h NW 307 3 min 0,0 UV-I 65 W/m 13,5 C 15,7 C 0,0 km/h
05.06.2020 19:57 15,7 C 87 % 1000,5 hPa 0,0 l/m 0,0 km/h NW 307 0 min 0,0 UV-I 62 W/m 13,5 C 15,7 C 0,0 km/h
05.06.2020 19:54 15,8 C 87 % 1000,5 hPa 0,0 l/m 0,0 km/h NW 307 0 min 0,0 UV-I 28 W/m 13,6 C 15,8 C 0,0 km/h
05.06.2020 19:51 15,8 C 87 % 1000,5 hPa 0,0 l/m 0,0 km/h NW 307 0 min 0,0 UV-I 28 W/m 13,6 C 15,8 C 0,0 km/h
05.06.2020 19:48 15,8 C 87 % 1000,4 hPa 0,0 l/m 0,0 km/h NW 307 0 min 0,0 UV-I 30 W/m 13,6 C 15,8 C 1,6 km/h
05.06.2020 19:45 15,9 C 87 % 1000,3 hPa 0,0 l/m 0,0 km/h NW 307 3 min 0,0 UV-I 97 W/m 13,7 C 15,9 C 0,0 km/h
05.06.2020 19:42 15,9 C 87 % 1000,3 hPa 0,0 l/m 0,0 km/h NW 307 3 min 0,6 UV-I 111 W/m 13,7 C 15,9 C 0,0 km/h
05.06.2020 19:39 16,0 C 87 % 1000,2 hPa 0,0 l/m 0,0 km/h NW 307 3 min 0,6 UV-I 116 W/m 13,8 C 16,0 C 0,0 km/h
05.06.2020 19:36 16,1 C 87 % 1000,2 hPa 0,0 l/m 0,0 km/h NW 307 3 min 0,6 UV-I 135 W/m 13,9 C 16,1 C 0,0 km/h
05.06.2020 19:33 16,2 C 87 % 1000,3 hPa 0,0 l/m 0,0 km/h NW 307 3 min 0,6 UV-I 151 W/m 14,0 C 16,2 C 0,0 km/h
05.06.2020 19:30 16,2 C 87 % 1000,3 hPa 0,0 l/m 0,0 km/h NW 307 3 min 0,6 UV-I 165 W/m 14,0 C 16,2 C 0,0 km/h
05.06.2020 19:27 16,2 C 87 % 1000,3 hPa 0,0 l/m 0,0 km/h NW 307 3 min 0,6 UV-I 185 W/m 14,0 C 16,2 C 0,0 km/h
05.06.2020 19:24 16,2 C 87 % 1000,3 hPa 0,0 l/m 0,0 km/h NW 307 3 min 0,6 UV-I 197 W/m 14,0 C 16,2 C 0,0 km/h
05.06.2020 19:21 16,3 C 87 % 1000,3 hPa 0,0 l/m 0,0 km/h NW 307 0 min 0,6 UV-I 100 W/m 14,1 C 16,3 C 0,0 km/h
05.06.2020 19:18 16,3 C 88 % 1000,2 hPa 0,0 l/m 0,0 km/h NW 307 0 min 0,6 UV-I 98 W/m 14,3 C 16,3 C 0,0 km/h
05.06.2020 19:15 16,3 C 88 % 1000,3 hPa 0,0 l/m 0,0 km/h NW 307 0 min 0,6 UV-I 90 W/m 14,3 C 16,3 C 0,0 km/h
05.06.2020 19:12 16,3 C 88 % 1000,3 hPa 0,0 l/m 0,0 km/h NW 307 0 min 0,6 UV-I 86 W/m 14,3 C 16,3 C 0,0 km/h
05.06.2020 19:09 16,4 C 87 % 1000,2 hPa 0,0 l/m 0,0 km/h NW 307 0 min 0,7 UV-I 79 W/m 14,2 C 16,4 C 0,0 km/h
05.06.2020 19:06 16,4 C 87 % 1000,3 hPa 0,0 l/m 0,0 km/h NW 307 0 min 0,7 UV-I 81 W/m 14,2 C 16,4 C 0,0 km/h
05.06.2020 19:03 16,4 C 87 % 1000,2 hPa 0,0 l/m 0,0 km/h NW 307 0 min 0,7 UV-I 77 W/m 14,2 C 16,4 C 0,0 km/h
05.06.2020 19:00 16,4 C 88 % 1000,3 hPa 0,0 l/m 0,0 km/h NW 307 0 min 0,7 UV-I 79 W/m 14,4 C 16,4 C 0,0 km/h
05.06.2020 18:57 16,4 C 87 % 1000,3 hPa 0,0 l/m 0,0 km/h NW 307 0 min 0,7 UV-I 84 W/m 14,2 C 16,4 C 0,0 km/h
05.06.2020 18:54 16,4 C 87 % 1000,3 hPa 0,0 l/m 0,0 km/h NW 307 0 min 0,7 UV-I 111 W/m 14,2 C 16,4 C 0,0 km/h
05.06.2020 18:51 16,5 C 87 % 1000,3 hPa 0,0 l/m 0,0 km/h NW 307 0 min 0,7 UV-I 111 W/m 14,3 C 16,5 C 0,0 km/h
05.06.2020 18:48 16,5 C 87 % 1000,3 hPa 0,0 l/m 0,0 km/h NW 307 0 min 0,7 UV-I 98 W/m 14,3 C 16,5 C 0,0 km/h
05.06.2020 18:45 16,5 C 87 % 1000,3 hPa 0,0 l/m 0,0 km/h NW 307 0 min 0,6 UV-I 84 W/m 14,3 C 16,5 C 0,0 km/h
05.06.2020 18:42 16,5 C 87 % 1000,4 hPa 0,0 l/m 0,0 km/h NW 307 0 min 0,6 UV-I 72 W/m 14,3 C 16,5 C 0,0 km/h
05.06.2020 18:39 16,5 C 87 % 1000,2 hPa 0,0 l/m 0,0 km/h NW 307 0 min 0,6 UV-I 77 W/m 14,3 C 16,5 C 0,0 km/h
05.06.2020 18:36 16,4 C 86 % 1000,2 hPa 0,0 l/m 0,0 km/h NW 307 0 min 0,7 UV-I 88 W/m 14,1 C 16,4 C 0,0 km/h
05.06.2020 18:33 16,4 C 85 % 1000,2 hPa 0,0 l/m 0,0 km/h NW 307 0 min 0,7 UV-I 97 W/m 13,9 C 16,4 C 1,6 km/h
05.06.2020 18:30 16,4 C 85 % 1000,2 hPa 0,0 l/m 0,0 km/h NW 307 0 min 0,7 UV-I 93 W/m 13,9 C 16,4 C 0,0 km/h
05.06.2020 18:27 16,4 C 84 % 1000,2 hPa 0,0 l/m 0,0 km/h NW 307 0 min 0,7 UV-I 100 W/m 13,7 C 16,4 C 0,0 km/h
05.06.2020 18:24 16,3 C 83 % 1000,2 hPa 0,0 l/m 0,0 km/h NW 307 0 min 0,7 UV-I 105 W/m 13,4 C 16,3 C 0,0 km/h
05.06.2020 18:21 16,3 C 83 % 1000,1 hPa 0,0 l/m 0,0 km/h NW 307 0 min 0,8 UV-I 109 W/m 13,4 C 16,3 C 0,0 km/h
05.06.2020 18:18 16,3 C 83 % 1000,0 hPa 0,0 l/m 0,0 km/h NW 307 0 min 0,8 UV-I 120 W/m 13,4 C 16,3 C 0,0 km/h
05.06.2020 18:15 16,3 C 83 % 1000,0 hPa 0,0 l/m 0,0 km/h NW 307 0 min 0,8 UV-I 127 W/m 13,4 C 16,3 C 0,0 km/h
05.06.2020 18:12 16,3 C 81 % 999,9 hPa 0,0 l/m 0,0 km/h NW 307 0 min 0,8 UV-I 132 W/m 13,0 C 16,3 C 0,0 km/h
05.06.2020 18:09 16,3 C 81 % 999,9 hPa 0,0 l/m 0,0 km/h NW 307 0 min 0,9 UV-I 132 W/m 13,0 C 16,3 C 0,0 km/h
05.06.2020 18:06 16,3 C 81 % 999,9 hPa 0,0 l/m 0,2 km/h NW 307 0 min 0,9 UV-I 135 W/m 13,0 C 16,3 C 1,6 km/h
05.06.2020 18:03 16,3 C 82 % 999,9 hPa 0,0 l/m 0,1 km/h NW 307 0 min 0,9 UV-I 130 W/m 13,2 C 16,3 C 1,6 km/h
05.06.2020 18:00 16,3 C 82 % 999,9 hPa 0,0 l/m 0,1 km/h NW 307 0 min 0,9 UV-I 132 W/m 13,2 C 16,3 C 1,6 km/h
05.06.2020 17:57 16,3 C 81 % 999,8 hPa 0,0 l/m 0,1 km/h NW 307 0 min 0,9 UV-I 139 W/m 13,0 C 16,3 C 1,6 km/h
05.06.2020 17:54 16,2 C 81 % 999,8 hPa 0,0 l/m 0,6 km/h NW 307 0 min 1,0 UV-I 149 W/m 12,9 C 16,2 C 3,2 km/h
05.06.2020 17:51 16,3 C 82 % 999,8 hPa 0,0 l/m 1,5 km/h NW 307 0 min 1,0 UV-I 155 W/m 13,2 C 16,3 C 8,0 km/h
05.06.2020 17:48 16,2 C 82 % 999,7 hPa 0,0 l/m 0,0 km/h NW 311 0 min 1,1 UV-I 163 W/m 13,1 C 16,2 C 1,6 km/h
05.06.2020 17:45 16,2 C 81 % 999,7 hPa 0,0 l/m 0,0 km/h NW 311 0 min 1,1 UV-I 169 W/m 12,9 C 16,2 C 0,0 km/h
05.06.2020 17:42 16,1 C 80 % 999,7 hPa 0,0 l/m 0,7 km/h NW 311 0 min 1,2 UV-I 186 W/m 12,6 C 16,1 C 4,8 km/h
05.06.2020 17:39 16,1 C 82 % 999,7 hPa 0,0 l/m 3,4 km/h NW 311 0 min 1,3 UV-I 225 W/m 13,0 C 16,1 C 11,3 km/h
05.06.2020 17:36 16,1 C 81 % 999,8 hPa 0,0 l/m 0,3 km/h N-NW 334 0 min 1,3 UV-I 197 W/m 12,8 C 16,1 C 3,2 km/h
05.06.2020 17:33 16,1 C 81 % 999,7 hPa 0,0 l/m 1,4 km/h N-NW 334 0 min 1,5 UV-I 220 W/m 12,8 C 16,1 C 6,4 km/h
05.06.2020 17:30 16,1 C 82 % 999,7 hPa 0,0 l/m 1,7 km/h N-NW 334 0 min 1,3 UV-I 223 W/m 13,0 C 16,1 C 4,8 km/h
05.06.2020 17:27 16,0 C 82 % 999,7 hPa 0,0 l/m 0,0 km/h N-NW 334 0 min 1,3 UV-I 221 W/m 12,9 C 16,0 C 1,6 km/h
05.06.2020 17:24 15,9 C 82 % 999,7 hPa 0,0 l/m 0,6 km/h N-NW 334 0 min 1,3 UV-I 207 W/m 12,8 C 15,9 C 4,8 km/h
05.06.2020 17:21 15,9 C 83 % 999,7 hPa 0,0 l/m 2,9 km/h N-NW 334 0 min 1,5 UV-I 221 W/m 13,0 C 15,9 C 8,0 km/h
05.06.2020 17:18 15,9 C 83 % 999,8 hPa 0,0 l/m 2,9 km/h N-NW 334 0 min 1,5 UV-I 225 W/m 13,0 C 15,9 C 11,3 km/h
05.06.2020 17:15 15,8 C 85 % 999,8 hPa 0,0 l/m 1,8 km/h N-NW 335 0 min 1,3 UV-I 193 W/m 13,3 C 15,8 C 4,8 km/h
05.06.2020 17:12 15,8 C 84 % 999,8 hPa 0,0 l/m 0,0 km/h N-NW 335 0 min 1,5 UV-I 234 W/m 13,1 C 15,8 C 0,0 km/h
05.06.2020 17:09 15,7 C 83 % 999,8 hPa 0,0 l/m 1,2 km/h N-NW 335 0 min 1,6 UV-I 255 W/m 12,8 C 15,7 C 6,4 km/h
05.06.2020 17:06 15,7 C 83 % 999,8 hPa 0,0 l/m 4,2 km/h N-NW 335 0 min 1,8 UV-I 292 W/m 12,8 C 15,7 C 8,0 km/h
05.06.2020 17:03 15,7 C 84 % 999,8 hPa 0,0 l/m 1,6 km/h N-NW 336 0 min 1,7 UV-I 234 W/m 13,0 C 15,7 C 6,4 km/h
05.06.2020 17:00 15,6 C 85 % 999,8 hPa 0,0 l/m 2,1 km/h N-NW 336 0 min 1,7 UV-I 229 W/m 13,1 C 15,6 C 4,8 km/h
05.06.2020 16:57 15,6 C 86 % 999,8 hPa 0,0 l/m 1,0 km/h N-NW 336 0 min 1,8 UV-I 287 W/m 13,3 C 15,6 C 3,2 km/h
05.06.2020 16:54 15,6 C 87 % 999,8 hPa 0,0 l/m 0,2 km/h N-NW 336 0 min 1,9 UV-I 301 W/m 13,4 C 15,6 C 1,6 km/h
05.06.2020 16:51 15,5 C 86 % 999,8 hPa 0,0 l/m 0,5 km/h N-NW 336 0 min 1,9 UV-I 309 W/m 13,2 C 15,5 C 4,8 km/h
05.06.2020 16:48 15,4 C 87 % 999,8 hPa 0,0 l/m 0,5 km/h N-NW 336 0 min 1,9 UV-I 290 W/m 13,2 C 15,4 C 3,2 km/h
05.06.2020 16:45 15,4 C 87 % 999,8 hPa 0,0 l/m 1,2 km/h N-NW 336 0 min 1,9 UV-I 299 W/m 13,2 C 15,4 C 4,8 km/h
05.06.2020 16:42 15,3 C 87 % 999,8 hPa 0,0 l/m 0,1 km/h N-NW 334 0 min 1,8 UV-I 251 W/m 13,1 C 15,3 C 1,6 km/h
05.06.2020 16:39 15,3 C 86 % 999,8 hPa 0,0 l/m 0,7 km/h N-NW 334 0 min 1,8 UV-I 243 W/m 13,0 C 15,3 C 4,8 km/h
05.06.2020 16:36 15,2 C 86 % 999,7 hPa 0,0 l/m 0,9 km/h N-NW 334 0 min 2,0 UV-I 306 W/m 12,9 C 15,2 C 3,2 km/h
_ Min-Zeit 09:03 15:21 22:00 - 22:03 - - - - - 21:06 09:48 22:03
Minimum _ 12,3 C 79 % 993,2 hPa - 0,0 km/h - - - - - 11,3 C 9,1 C 0,0 km/h
_ Max-Zeit 18:39 04:12 21:06 03:33 09:48 - - 09:36 10:57 10:57 19:00 18:39 10:03
Maximum _ 16,5 C 97 % 1001,6 hPa 0,2 l/m 13,8 km/h
N-NW
- - 3 min 5,0 UV-I 571 W/m 14,4 C 16,5 C 25,7 km/h
W-NW
Durchschnitt _ 14,3 C 91 % 996,8 hPa #9,6 l/m 2,9 km/h NW - #51 min. 2,0 UV-I 186 W/m 12,9 C 14,0 C 6,5 km/h
Schulla EDV